This is the latest recevied weather packets stored in our database for station/object N7BTW-13. If no packets are shown the sender has not sent any weather packets the latest 10 day(s).
| Time | Temp. | Humidity | Pressure | Rain* | Wind** | Luminosity | Snow |
|---|---|---|---|---|---|---|---|
| 1788063609 | 13.89° C | 74% | - | 0 mm | - | - | - |
| 1788063006 | 14.44° C | 73% | - | 0 mm | - | - | - |
| 1788062406 | 15° C | 71% | - | 0 mm | - | - | - |
| 1788061808 | 15° C | 71% | - | 0 mm | - | - | - |
| 1788061212 | 15.56° C | 68% | - | 0 mm | - | - | - |
| 1788060611 | 16.11° C | 66% | - | 0 mm | - | - | - |
| 1788060007 | 16.67° C | 65% | - | 0 mm | - | - | - |
| 1788059407 | 17.22° C | 62% | - | 0 mm | - | - | - |
| 1788058812 | 17.78° C | 60% | - | 0 mm | - | - | - |
| 1788058207 | 18.89° C | 57% | - | 0 mm | - | - | - |
| 1788057609 | 19.44° C | 56% | - | 0 mm | - | - | - |
| 1788057010 | 18.89° C | 57% | - | 0 mm | - | - | - |
| 1788056407 | 19.44° C | 55% | - | 0 mm | - | - | - |
| 1788055809 | 20° C | 53% | - | 0 mm | - | - | - |
| 1788055209 | 20.56° C | 52% | - | 0 mm | - | - | - |
| 1788054610 | 21.11° C | 51% | - | 0 mm | - | - | - |
| 1788054006 | 21.67° C | 49% | - | 0 mm | - | - | - |
| 1788053407 | 22.22° C | 45% | - | 0 mm | - | - | - |
| 1788052807 | 22.78° C | 44% | - | 0 mm | - | - | - |
| 1788052209 | 23.33° C | 43% | - | 0 mm | - | - | - |
| 1788051608 | 23.89° C | 42% | - | 0 mm | - | - | - |
| 1788051010 | 23.89° C | 42% | - | 0 mm | - | - | - |
| 1788050413 | 23.89° C | 41% | - | 0 mm | - | - | - |
| 1788049807 | 24.44° C | 41% | - | 0 mm | - | - | - |
| 1788049208 | 25° C | 41% | - | 0 mm | - | - | - |
* Rain latest hour (hover to see other rain measurements)
** Current wind speed in m/s (hover to see current wind gust speed)